Regional Weather Roundup
Issued by NWS

Home | Current Version | Previous Version | Graphics & Text | Print | Product List | Glossary On
Versions: 1 2 3 4 5 6 7 8 9 10 11 12 13 14 15 16 17 18 19 20 21 22 23 24 25 26 27 28 29 30 31 32 33 34 35 36 37 38 39 40 41 42 43 44 45 46 47 48 49 50
000
ASUS43 KIND 162000
RWRIN

WEATHER ROUNDUP FOR INDIANA
NATIONAL WEATHER SERVICE INDIANAPOLIS IN
400 PM EDT WED AUG 16 2017

NOTE: "FAIR" INDICATES FEW OR NO CLOUDS BELOW 12,000 FEET WITH NO
SIGNIFICANT WEATHER AND/OR OBSTRUCTIONS TO VISIBILITY.

* - STATION DOES NOT REPORT WEATHER SUCH AS PRECIPITATION OR FOG.

+ - STATION NOT QUALITY CONTROLLED BY THE NATIONAL WEATHER SERVICE.
    USE DATA WITH CAUTION...ESPECIALLY DEWPOINT AND RELATIVE
    HUMIDITY OBSERVATIONS.

INZ001>003-010>013-019-020-162100-
NORTHWEST INDIANA

CITY           SKY/WX    TMP DP  RH WIND       PRES   REMARKS
GARY /AIRPORT/ MOSUNNY   90  64  43 SE12      29.93F
MICHIGAN CITY+ MOSUNNY   86  66  51 S6        29.95F
MONTICELLO +   MOSUNNY   87  68  53 S7        29.95F
RENSSELAER +   PTSUNNY   84  64  51 S10G16    29.95F

$$

LMZ046-743>745-162100-
SOUTHERN LAKE MICHIGAN

STATION/POSITION TIME  TEMP    WIND        PRES    WAVE
                       AIR SEA DIR/SP/G            HT
                 (UTC) (F)     (DEG/KT/KT) (MB)    (FT)
BURNS HARBOR     1940   87     140/  4/ 13 1014.2F
MICHIGAN CITY    1930   83      70/  1/  3   N/A
5NW MICH CITY    1950   78 76   60/  6/  8   N/A     1

$$

INZ004-005-014>016-021>024-162100-
NORTH CENTRAL INDIANA

CITY           SKY/WX    TMP DP  RH WIND       PRES   REMARKS
ELKHART        MOSUNNY   86  68  54 S12       29.97F
GOSHEN         PTSUNNY   86  66  51 S9        29.98F
SOUTH BEND     MOSUNNY   87  70  56 S9        29.97F
WARSAW +       MOSUNNY   86  68  54 S8        29.98F

$$

INZ006>009-017-018-025>027-162100-
NORTHEAST INDIANA

CITY           SKY/WX    TMP DP  RH WIND       PRES   REMARKS
FORT WAYNE     PTSUNNY   87  63  44 SE5       29.99F
KENDALLVILLE + SUNNY     86  66  50 S6        30.00F

$$

INZ028-029-035-036-043>045-051>053-162100-
WEST CENTRAL INDIANA

CITY           SKY/WX    TMP DP  RH WIND       PRES   REMARKS
LAFAYETTE      MOSUNNY   86  72  62 S8        29.94F
TERRE HAUTE    CLOUDY    84  72  67 S7        29.96F

$$

INZ030>032-037>040-046>048-054>057-064-065-162100-
CENTRAL INDIANA

CITY           SKY/WX    TMP DP  RH WIND       PRES   REMARKS
COLUMBUS       MOSUNNY   88  63  42 S9        29.98F
INDIANAPOLIS   PTSUNNY   86  69  56 S8        29.97F
-EAGLE CREEK   MOSUNNY   84  67  56 S8        29.97F
KOKOMO +       MOSUNNY   86  71  60 S6        29.99F
MT COMFORT *+  CLOUDY    88  70  55 SE6       29.99F
SHELBYVILLE    CLOUDY    86  69  56 S7        29.97F

$$

INZ033-034-041-042-049-050-058-059-162100-
EAST CENTRAL INDIANA

CITY           SKY/WX    TMP DP  RH WIND       PRES   REMARKS
MUNCIE         CLOUDY    89  65  44 SW7       29.98F
RICHMOND +     MOSUNNY   86  68  54 S3        30.02F

$$

INZ060-061-067>069-081>083-085>088-162100-
SOUTHWEST INDIANA

CITY           SKY/WX    TMP DP  RH WIND       PRES   REMARKS
EVANSVILLE     CLOUDY    86  74  67 SE5       29.96F
HUNTINGBURG +  CLOUDY    86  74  67 S6        29.98F

$$

INZ062-063-066-070>080-084-089>092-162100-
SOUTH CENTRAL AND SOUTHEAST INDIANA

CITY           SKY/WX    TMP DP  RH WIND       PRES   REMARKS
BLOOMINGTON    PTSUNNY   88  70  55 VRB6      29.98F
MADISON *+     SUNNY     90  68  48 S7        30.01F
SEYMOUR +      CLOUDY    91  68  46 S3        29.97F HX  95

$$




USA.gov is the U.S. government's official web portal to all federal, state and local government web resources and services.